HAVELSAT

Last updated on March 1, 2019, 12:02 a.m. UTC

1 42700U 98067LH  19058.65367074  .07524467  12395-4  57474-3 0  9993
2 42700  51.6026 103.5658 0000534  29.5264  63.1633 16.39608965102506

Satellite is not in orbit.